Regional Weather Roundup
Issued by NWS Charleston, WV

Home | Current Version | Previous Version | Graphics & Text | Print | Product List | Glossary On
Versions: 1 2 3 4 5 6 7 8 9 10 11 12 13 14 15 16 17 18 19 20 21 22 23 24 25
000
ASUS41 KRLX 170610
RWRRLX
West Virginia Regional Weather Roundup
National Weather Service Charleston WV
100 AM EST SAT FEB 17 2018

Note: "fair" indicates few or no clouds below 12,000 feet with no
significant weather and/or obstructions to visibility.

WVZ003-170700-
Northern Panhandle of West Virginia

CITY           SKY/WX    TMP DP  RH WIND       PRES   REMARKS
WHEELING       CLOUDY    29  19  66 NW3       30.27R
$$

WVZ009-170700-
Northwest West Virginia

CITY           SKY/WX    TMP DP  RH WIND       PRES   REMARKS
PARKERSBURG    MOCLDY    30  25  81 N5        30.31R
$$

WVZ006-170700-
Western West Virginia

CITY           SKY/WX    TMP DP  RH WIND       PRES   REMARKS
HUNTINGTON     CLOUDY    36  29  75 N5        30.26F
$$

WVZ015-170700-
West Central West Virginia

CITY           SKY/WX    TMP DP  RH WIND       PRES   REMARKS
CHARLESTON     CLOUDY    38  32  79 NE6       30.25S
$$

WVZ022-031-170700-
North Central West Virginia

CITY           SKY/WX    TMP DP  RH WIND       PRES   REMARKS
CLARKSBURG     CLOUDY    34  26  72 NE6       30.26R
MORGANTOWN     CLOUDY    30  21  69 CALM      30.27R
$$

WVZ025-035-042-045-170700-
Southern West Virginia

CITY           SKY/WX    TMP DP  RH WIND       PRES   REMARKS
BECKLEY        CLOUDY    34  32  92 E3        30.20R
LOGAN          CLOUDY    39  36  87 CALM      30.22S
BLUEFIELD      CLOUDY    34  31  88 CALM      30.19R
LEWISBURG      MOCLDY    36  29  75 W5        30.21R
$$

WVZ047-170700-
Northern Mountains of West Virginia

CITY           SKY/WX    TMP DP  RH WIND       PRES   REMARKS
ELKINS         CLOUDY    32  26  78 NW3       30.22R
$$

WVZ052-170700-
Eastern Panhandle of West Virginia

CITY           SKY/WX    TMP DP  RH WIND       PRES   REMARKS
MARTINSBURG      N/A     33  23  66 CALM      30.28R
PETERSBURG     MOCLDY    34  24  67 N3        30.26R
$$




USA.gov is the U.S. government's official web portal to all federal, state and local government web resources and services.